Flag for Croatia Weather past 2 weeks in Zagreb, Croatia

Now
59 °F

Clear.


Feels Like: 57 °F
Forecast: 55 / 72 °F
Wind: 9 mph from Southwest

Location: Zagreb / Pleso

Current Time: Apr 26, 2015 at 11:16:23 PM

Latest Report: Apr 26, 2015 at 11:00 PM


Visibility: 10 mi

Pressure: 29.86 "Hg

Humidity: 68%

Dew point: 48 °F

Location of ZagrebLocation

Historic Weather in Zagreb — Graph

°F

Zagreb temperature yesterday

Maximum temperature yesterday: 73 °F (at 4:00 PM)
Minimum temperature yesterday: 43 °F (at 4:30 AM)
Average temperature yesterday: 58 °F

Past Weeks' High & Low Weather Summary

 TemperatureHumidityPressure
High81 °F (Apr 16, 2:30 PM)100% (Apr 19, 4:30 AM)30.42 "Hg (Apr 19, 4:30 AM)
Low32 °F (Apr 19, 4:30 AM)19% (Apr 15, 4:00 PM)29.83 "Hg (Apr 26, 3:00 PM)
Average57 °F58%30.10 "Hg
* Reported Apr 11 10:00 PM — Apr 26 10:00 PM, Zagreb, Weather by CustomWeather, © 2015

Note: Actual official high and low records may vary slightly from our data, if they occured in-between our weather recording intervals... More about our weather records

Advertising

Zagreb weather history for previous 24 hours

 ConditionsComfort  
Time TempWeatherWind HumidityBarometerVisibility
10:00 PM
Sun, Apr 26
59 °FClear.8 mph68%29.86 "Hg10 mi
9:30 PM61 °FClear.9 mph63%29.86 "Hg10 mi
9:00 PM63 °FClear.10 mph59%29.83 "Hg10 mi
8:30 PM63 °FSunny.10 mph59%29.83 "Hg10 mi
8:00 PM64 °FSunny.12 mph56%29.83 "Hg10 mi
7:30 PM66 °FPassing clouds.13 mph52%29.83 "HgN/A
7:00 PM68 °FPassing clouds.14 mph49%29.83 "HgN/A
6:30 PM68 °FSunny.16 mph49%29.83 "Hg10 mi
6:00 PM70 °FPassing clouds.15 mph43%29.83 "HgN/A
5:30 PM72 °FSunny.16 mph44%29.83 "Hg10 mi
5:00 PM73 °FPassing clouds.14 mph41%29.83 "HgN/A
4:30 PM73 °FPassing clouds.15 mph38%29.83 "HgN/A
4:00 PM72 °FPassing clouds.14 mph41%29.83 "HgN/A
3:30 PM72 °FPassing clouds.10 mph41%29.83 "HgN/A
3:00 PM73 °FPassing clouds.9 mph41%29.83 "HgN/A
2:30 PM73 °FPassing clouds.9 mph38%29.86 "HgN/A
2:00 PM73 °FPassing clouds.12 mph41%29.86 "HgN/A
1:30 PM72 °FPassing clouds.10 mph41%29.86 "HgN/A
1:00 PM72 °FPassing clouds.13 mph44%29.86 "HgN/A
12:30 PM70 °FPassing clouds.10 mph43%29.89 "HgN/A
12:00 PM70 °FPassing clouds.10 mph46%29.89 "HgN/A
11:30 AM70 °FPassing clouds.10 mph50%29.89 "HgN/A
11:00 AM68 °FPassing clouds.13 mph49%29.89 "HgN/A
10:30 AM66 °FPassing clouds.13 mph52%29.89 "HgN/A
10:00 AM64 °FPassing clouds.15 mph52%29.89 "HgN/A
9:30 AM64 °FPassing clouds.12 mph56%29.89 "HgN/A
9:00 AM63 °FPassing clouds.13 mph59%29.89 "HgN/A
8:30 AM61 °FPassing clouds.14 mph63%29.89 "HgN/A
8:00 AM59 °FPassing clouds.8 mph63%29.89 "HgN/A
7:30 AM55 °FPassing clouds.5 mph72%29.89 "HgN/A
7:00 AM54 °FPassing clouds.6 mph77%29.89 "HgN/A
6:30 AM52 °FClear.6 mph77%29.89 "Hg10 mi
6:00 AM50 °FClear.6 mph82%29.89 "Hg10 mi
5:30 AM52 °FClear.7 mph77%29.89 "Hg10 mi
5:00 AM52 °FClear.6 mph77%29.89 "Hg10 mi
4:30 AM52 °FClear.7 mph77%29.89 "Hg10 mi
4:00 AM55 °FClear.9 mph67%29.89 "Hg10 mi
3:30 AM54 °FClear.12 mph72%29.89 "Hg10 mi
3:00 AM55 °FPassing clouds.8 mph67%29.92 "HgN/A
2:30 AM55 °FPassing clouds.5 mph67%29.92 "HgN/A
2:00 AM57 °FClear.7 mph63%29.92 "Hg10 mi
1:30 AM57 °FClear.10 mph63%29.92 "Hg10 mi
1:00 AM59 °FPassing clouds.14 mph59%29.92 "HgN/A
12:30 AM57 °FPassing clouds.8 mph63%29.92 "HgN/A
12:00 AM57 °FPassing clouds.12 mph63%29.92 "HgN/A
11:00 PM
Sat, Apr 25
59 °FClear.12 mph59%29.92 "Hg10 mi
Weather by CustomWeather, © 2015

See weather overviewHow to use our weather pages